Sijjak

Uzbekistan     41˚41′29″N   70˚03′27″E
temp.,
°C
wind,
m/s
gust,
m/s
humid.,
%
clouds,
%
prec.,
mm/h
press.,
hPa
HPBL,
m
3 december, thu
thu323:00ese129796 0.0 102834
02:00−1˚ene338871 0.0 102823
05:00−2˚ene337858 0.0 102922
08:00−3˚e237642 0.0 102921
11:00+1˚se229654 0.0 102844
14:00+1˚se2210086 0.0 102766
17:00−3˚s129589 0.1 102932
20:00−4˚ese1191100 0.0 102922
4 december, fri
fri423:00−4˚ese1287100 0.0 102822
02:00−5˚e2288100 0.0 102822
05:00−6˚e228394 0.0 102921
08:00−4˚e228695 0.0 103050
11:00−3˚s229298 0.0 1030234
14:00−3˚s2297100 0.0 1029251
17:00−6˚se1299100 0.1 103032
20:00−9˚e229266 0.0 103123
5 december, sat
sat523:00−10˚ene338542 0.0 103124
02:00−11˚ene33700 0.0 103121
05:00−12˚ene33620 0.0 103221
08:00−12˚ene44550 0.0 103224
11:00−6˚e23670 0.0 1031103
14:00−4˚ese22710 0.0 103087
17:00−10˚e33540 0.0 103123
20:00−12˚ene55520 0.0 103239
6 december, sun
sun623:00−13˚ene54520 0.0 103141
02:00−13˚ene55520 0.0 103144
05:00−11˚ene555748 0.0 103156
08:00−10˚ene5466100 0.0 103161
11:00−5˚e448197 0.0 1030132
14:00−2˚e3489100 0.1 1029191
17:00−5˚ene3380100 0.1 102933
20:00−7˚ene547642 0.0 102950
7 december, mon
mon723:00−7˚ene557131 0.0 102760
02:00−6˚ene556998 0.0 102657
05:00−4˚ene447199 0.0 102469
08:00−3˚ene4485100 0.4 102577
11:00−2˚ese2294100 0.6 1024164
14:00−1˚sse2299100 1.1 1024166
17:00−3˚ssw2299100 2.7 102676
20:00−4˚s2298100 2.2 102890